CAPE
243 0 0 0 0 0 0 0 0 0 0 0 0 0 0 0 0 0 0 0 0 0 0 0 0 0 0 0 0 0 0 0 0 0 0 0 2 1 0 2 52 11 352
28 0 0 0 0 0 0 0 0 0 0 0 0 0 0 0 0 0 0 0 0 0 0 0 0 0 0 0 0 2 2 7 3 1 0 0 0 2 8 8 0 37 13
0 0 0 0 0 0 0 0 0 0 0 0 0 0 0 0 0 0 0 0 0 0 0 0 0 0 0 0 7 11 10 14 14 12 7 1 7 20 27 4 2 2 23
0 0 0 0 0 0 0 0 0 0 0 0 0 0 0 0 0 0 0 0 0 0 0 0 0 0 3 11 7 18 18 29 17 13 6 10 9 16 24 20 1 0 35
0 0 0 0 0 0 0 0 0 0 0 0 0 0 0 0 0 0 0 0 0 0 2 2 0 1 1 1 0 8 16 16 19 18 10 8 15 27 21 11 11 5 18
0 0 0 0 0 0 0 0 0 0 0 0 0 0 0 0 0 0 0 0 0 1 2 2 4 1 1 0 0 0 0 25 43 23 20 37 28 18 20 15 12 10 13
1 0 0 0 0 0 0 0 0 0 0 0 0 0 0 0 0 0 0 0 1 4 4 4 5 0 3 9 2 0 1 0 0 10 2 6 18 31 11 18 14 9 11
4 0 0 0 0 0 0 0 0 0 0 0 0 0 0 0 0 0 0 5 9 6 6 15 19 15 12 9 13 10 13 19 25 2 2 0 0 0 0 7 13 11 2
3 6 3 0 0 0 0 0 1 1 1 0 0 0 0 0 0 0 0 7 9 8 8 12 10 11 9 0 16 15 15 16 9 0 0 0 0 0 0 0 10 13 7
14 9 8 2 3 2 3 4 2 3 4 1 0 0 0 0 0 0 0 1 6 5 10 11 2 0 0 0 16 27 31 14 13 19 15 12 5 4 0 0 7 13 11
8 10 13 9 4 5 4 5 2 1 1 1 0 0 0 0 0 0 0 5 9 7 8 6 7 0 0 0 0 32 30 27 31 33 8 12 16 13 5 7 17 12 7
8 7 8 10 9 7 2 6 6 4 6 3 4 1 0 8 1 0 0 0 0 19 11 11 16 1 0 0 0 0 0 6 23 8 5 10 9 14 11 15 24 24 15
1 4 5 3 5 7 9 7 4 3 0 3 1 2 5 7 9 0 0 0 0 10 23 15 0 0 0 0 0 0 0 32 29 16 6 5 3 4 21 17 23 30 23
6 6 6 3 3 5 1 0 3 5 5 5 5 4 7 8 5 3 3 8 11 4 7 8 5 4 0 0 3 12 32 29 23 19 13 2 3 3 8 16 23 19 24
5 7 8 3 6 5 4 3 3 5 2 7 8 7 5 7 6 1 7 11 11 10 16 10 9 6 7 19 36 18 14 31 27 14 12 11 9 1 11 8 8 11 18
0 1 4 4 4 7 7 8 0 0 0 0 0 2 7 2 0 1 3 3 1 3 9 6 7 9 7 21 18 28 29 16 18 17 18 15 12 7 11 16 17 8 4
0 0 0 0 1 8 10 7 6 1 0 0 0 0 0 0 0 1 2 0 0 1 8 6 9 13 21 20 22 34 24 21 24 17 14 14 12 9 9 19 24 37 18
3 0 0 0 0 0 2 5 4 6 5 3 2 0 0 0 0 0 0 2 6 2 11 16 10 20 18 19 16 33 32 33 29 21 19 15 15 12 11 23 19 33 32
0 0 0 0 0 0 0 1 4 6 5 6 8 3 1 0 0 0 0 14 13 9 13 15 18 18 21 15 13 11 18 23 23 22 19 19 17 21 19 22 21 2 0
4 0 0 0 0 0 0 0 0 1 5 6 10 12 13 13 10 10 12 10 10 15 12 12 14 13 14 15 10 17 7 36 20 22 19 19 17 25 24 27 32 20 19
2 4 0 0 0 0 0 0 0 0 7 11 7 5 0 14 10 12 11 10 10 12 14 11 11 10 12 12 14 21 24 6 23 20 21 16 20 30 24 19 20 25 24
1 7 6 0 0 0 0 0 0 0 6 10 11 8 0 10 15 14 9 9 11 12 15 15 16 13 12 12 7 16 20 11 23 30 26 25 23 13 24 22 22 26 28
1 5 5 0 0 0 0 0 1 1 2 8 10 10 10 11 14 11 11 9 12 16 13 17 17 14 13 14 13 13 15 27 3 42 7 21 13 16 14 18 13 19 23
3 7 6 0 0 0 1 3 2 0 1 5 9 10 13 13 13 12 12 11 15 11 13 15 12 13 13 15 13 13 13 11 10 17 40 9 9 10 12 11 19 14 14
0 0 1 4 5 6 6 2 4 1 1 5 10 11 11 11 11 11 11 12 14 13 10 12 10 10 13 11 11 9 4 0 5 0 7 36 28 13 4 22 30 22 21
0 0 0 4 8 7 8 8 5 3 4 7 11 12 14 14 13 14 16 15 17 16 20 19 17 13 13 12 6 2 0 0 1 0 4 27 21 12 6 18 6 20 20
CIN
-369 -0 -0 -0 -0 -0 -0 -0 -0 -0 -0 -0 -0 -0 -0 -0 -0 -0 -0 -0 -0 -0 -0 -0 -0 -0 -0 -0 -0 -0 -0 -0 -0 -0 -0 -0 -0 -0 -0 -0 -117 -0 -5
-561 -0 -0 -0 -0 -0 -0 -0 -0 -0 -0 -0 -0 -0 -0 -0 -0 -0 -0 -0 -0 -0 -0 -0 -0 -0 -0 -0 -0 -0 -0 -0 -0 -0 -0 -0 -0 -0 -0 -0 -0 -6 -34
-0 -0 -0 -0 -0 -0 -0 -0 -0 -0 -0 -0 -0 -0 -0 -0 -0 -0 -0 -0 -0 -0 -0 -0 -0 -0 -0 -0 -0 -0 -0 -0 -0 -0 -0 -0 -0 -0 -0 -0 -0 -0 -15
-0 -0 -0 -0 -0 -0 -0 -0 -0 -0 -0 -0 -0 -0 -0 -0 -0 -0 -0 -0 -0 -0 -0 -0 -0 -0 -0 -0 -0 -0 -0 -0 -0 -0 -0 -0 -0 -0 -0 -0 -0 -0 -2
-0 -0 -0 -0 -0 -0 -0 -0 -0 -0 -0 -0 -0 -0 -0 -0 -0 -0 -0 -0 -0 -0 -0 -0 -0 -0 -0 -0 -0 -0 -0 -0 -0 -0 -0 -0 -0 -0 -0 -0 -0 -0 -2
-0 -0 -0 -0 -0 -0 -0 -0 -0 -0 -0 -0 -0 -0 -0 -0 -0 -0 -0 -0 -0 -0 -0 -0 -0 -1 -0 -0 -0 -0 -0 -0 -0 -0 -0 -0 -0 -0 -0 -0 -0 -0 -0
-0 -0 -0 -0 -0 -0 -0 -0 -0 -0 -0 -0 -0 -0 -0 -0 -0 -0 -0 -0 -0 -0 -0 -0 -0 -0 -1 -0 -0 -0 -0 -0 -0 -0 -0 -2 -1 -0 -0 -0 -0 -0 -0
-0 -0 -0 -0 -0 -0 -0 -0 -0 -0 -0 -0 -0 -0 -0 -0 -0 -0 -0 -0 -0 -0 -0 -0 -0 -0 -0 -0 -0 -0 -0 -0 -0 -0 -0 -0 -0 -0 -0 -1 -0 -0 -0
-0 -0 -0 -0 -0 -0 -0 -0 -0 -0 -0 -0 -0 -0 -0 -0 -0 -0 -0 -0 -0 -0 -0 -0 -0 -0 -5 -9 -0 -0 -0 -0 -8 -0 -0 -0 -0 -0 -0 -0 -0 -0 -0
-0 -0 -0 -0 -0 -0 -0 -0 -0 -0 -0 -0 -0 -0 -0 -0 -0 -0 -0 -0 -0 -0 -0 -0 -7 -0 -0 -6 -1 -0 -0 -0 -0 -0 -0 -0 -3 -0 -0 -0 -0 -0 -0
-0 -0 -0 -0 -0 -0 -0 -0 -0 -0 -0 -0 -0 -0 -0 -0 -0 -0 -0 -0 -0 -0 -0 -0 -0 -1 -0 -0 -0 -0 -0 -6 -0 -0 -0 -0 -0 -0 -0 -0 -0 -0 -0
-0 -0 -0 -0 -0 -0 -0 -0 -0 -0 -0 -0 -0 -0 -0 -0 -0 -0 -0 -0 -0 -0 -0 -0 -0 -17 -0 -0 -0 -0 -2 -43 -0 -0 -0 -0 -0 -0 -0 -0 -0 -0 -0
-0 -0 -0 -0 -0 -0 -0 -0 -0 -0 -0 -0 -0 -0 -0 -0 -0 -2 -2 -0 -0 -0 -0 -2 -0 -0 -0 -0 -0 -0 -0 -0 -0 -0 -0 -0 -0 -0 -0 -0 -0 -0 -0
-0 -0 -0 -0 -0 -0 -0 -0 -0 -0 -0 -0 -0 -0 -0 -0 -0 -0 -0 -0 -0 -0 -0 -0 -0 -0 -0 -0 -0 -1 -0 -0 -0 -0 -0 -0 -0 -0 -0 -0 -0 -0 -0
-0 -0 -0 -0 -0 -0 -0 -0 -0 -0 -0 -0 -0 -0 -0 -0 -0 -1 -0 -0 -0 -0 -0 -0 -0 -0 -0 -0 -0 -0 -1 -0 -0 -0 -0 -0 -0 -0 -0 -0 -0 -0 -0
-0 -0 -0 -0 -0 -0 -0 -0 -0 -0 -0 -0 -0 -0 -0 -1 -1 -1 -0 -1 -1 -1 -0 -0 -0 -0 -0 -0 -0 -0 -0 -0 -1 -0 -0 -0 -0 -0 -0 -0 -0 -0 -1
-0 -0 -0 -0 -0 -0 -0 -0 -0 -0 -0 -0 -0 -0 -0 -0 -0 -1 -0 -0 -0 -0 -0 -0 -0 -0 -0 -0 -0 -0 -0 -1 -0 -0 -0 -0 -0 -0 -0 -0 -0 -0 -1
-0 -0 -0 -0 -0 -0 -0 -0 -0 -0 -0 -0 -1 -0 -0 -0 -1 -0 -0 -0 -0 -0 -0 -0 -0 -0 -0 -0 -0 -0 -0 -0 -0 -0 -0 -0 -0 -0 -0 -0 -0 -0 -0
-0 -0 -0 -0 -0 -0 -0 -0 -0 -0 -0 -0 -0 -0 -0 -0 -0 -0 -0 -0 -0 -0 -0 -0 -0 -0 -0 -0 -0 -0 -0 -0 -0 -0 -0 -0 -0 -0 -0 -0 -0 -2 -0
-0 -0 -0 -0 -0 -0 -0 -0 -0 -0 -0 -0 -0 -0 -0 -0 -0 -0 -0 -0 -0 -0 -0 -0 -0 -0 -0 -0 -0 -0 -0 -0 -0 -0 -0 -0 -0 -0 -0 -0 -0 -0 -0
-0 -0 -0 -0 -0 -0 -0 -0 -0 -0 -0 -0 -0 -0 -0 -0 -0 -0 -0 -0 -0 -0 -0 -0 -0 -0 -0 -0 -0 -0 -0 -0 -0 -0 -0 -1 -1 -0 -0 -0 -0 -1 -2
-0 -0 -0 -0 -0 -0 -0 -0 -0 -0 -0 -0 -0 -0 -0 -0 -0 -0 -0 -0 -0 -0 -0 -0 -0 -0 -0 -0 -0 -0 -0 -0 -1 -0 -0 -0 -0 -1 -0 -0 -0 -0 -0
-0 -0 -0 -0 -0 -0 -0 -0 -0 -0 -0 -0 -0 -0 -0 -0 -0 -0 -0 -0 -0 -0 -0 -0 -0 -0 -0 -0 -0 -0 -0 -0 -0 -0 -0 -1 -2 -0 -0 -0 -0 -0 -0
-0 -0 -0 -0 -0 -0 -0 -0 -0 -0 -0 -0 -0 -0 -0 -0 -0 -0 -0 -0 -0 -0 -0 -0 -0 -0 -0 -0 -0 -0 -0 -0 -0 -0 -0 -0 -0 -0 -0 -1 -0 -0 -0
-0 -0 -0 -0 -0 -0 -0 -0 -0 -0 -0 -0 -0 -0 -0 -0 -0 -0 -0 -0 -0 -0 -0 -0 -0 -0 -0 -0 -0 -0 -0 -0 -0 -0 -0 -0 -0 -0 -0 -0 -0 -0 -0
-0 -0 -0 -0 -0 -0 -0 -0 -0 -0 -0 -0 -0 -0 -0 -0 -0 -0 -0 -0 -0 -0 -0 -0 -0 -0 -0 -0 -0 -0 -0 -0 -0 -0 -0 -0 -0 -0 -0 -0 -0 -0 -0
Wind_Speed
15 15 15 14 14 13 10 11 11 14 10 9 9 9 7 6 4 4 4 4 3 2 3 5 6 7 7 7 6 6 7 7 10 11 10 12 13 13 10 10 8 5 6
17 17 18 16 16 14 11 9 9 9 9 9 9 8 7 5 5 5 4 4 2 1 3 6 7 7 9 8 7 7 7 8 8 14 11 11 12 13 10 9 7 5 4
17 17 17 18 16 13 12 10 10 10 10 8 7 6 6 5 5 2 0 1 1 2 4 6 6 8 8 8 8 9 8 7 8 8 10 9 9 9 13 7 7 8 4
17 18 16 13 15 11 13 12 9 8 8 7 5 5 4 5 3 1 2 2 4 4 5 6 7 8 8 9 8 8 8 9 8 9 9 8 8 7 9 10 9 7 7
14 15 14 13 11 11 9 10 10 9 7 6 5 4 3 2 1 2 2 3 5 7 7 7 6 7 6 7 6 7 8 8 8 8 8 6 6 8 9 9 9 8 6
11 11 11 12 12 12 11 10 9 9 8 6 4 2 3 3 4 2 4 5 6 7 8 7 6 7 4 5 6 8 8 9 10 8 10 8 6 6 7 9 8 9 6
11 10 9 12 13 12 10 9 9 8 7 6 3 3 5 5 3 5 5 7 7 7 7 6 7 5 5 7 7 8 5 2 2 3 4 8 11 8 8 10 10 10 9
11 10 11 11 11 12 13 12 10 7 7 5 3 2 6 4 5 6 9 10 8 9 9 9 9 9 7 8 9 10 11 9 6 5 3 3 7 8 8 10 10 12 12
13 13 13 14 15 14 11 9 8 5 3 1 1 4 8 6 4 8 8 8 9 8 10 9 9 10 6 7 11 12 11 11 5 10 8 7 9 12 9 8 10 9 10
13 14 12 12 12 10 11 6 5 5 1 2 3 5 6 6 6 8 8 7 9 8 10 10 8 9 7 7 9 11 12 10 11 13 12 11 9 10 8 9 9 10 10
14 14 12 11 11 11 7 7 5 3 0 4 5 4 7 7 6 7 9 9 9 8 10 9 8 4 10 8 7 10 11 11 13 12 12 10 10 9 8 6 7 8 9
13 13 11 10 8 6 8 6 4 1 3 3 6 4 4 8 3 6 10 11 11 11 10 10 10 7 9 8 8 9 10 11 10 10 10 10 8 10 7 6 7 9 9
14 12 9 9 9 8 7 4 2 2 2 5 6 6 6 6 7 4 6 11 11 10 10 12 14 13 13 11 14 14 13 11 11 10 10 9 8 8 11 10 10 10 12
13 11 8 7 6 7 4 5 5 4 5 5 6 7 7 6 6 4 7 9 11 10 12 10 14 16 17 17 16 13 11 10 10 10 9 8 7 7 9 8 7 6 8
11 10 6 3 6 6 5 2 3 2 2 4 5 6 8 7 6 8 9 9 9 10 14 11 10 9 9 10 10 9 10 8 8 8 8 8 7 7 9 7 7 7 7
10 9 5 6 6 5 3 1 7 4 4 5 6 6 7 9 10 12 13 12 12 13 9 9 9 9 9 9 9 9 7 10 8 7 7 7 7 6 8 7 5 7 7
9 9 7 7 7 7 6 6 7 5 5 5 9 10 10 12 14 15 15 14 13 10 7 7 7 8 9 8 8 8 7 8 8 6 7 7 7 7 8 8 6 5 7
10 9 7 6 6 6 7 7 7 7 8 7 4 6 7 10 13 15 15 14 8 5 6 8 8 8 8 8 7 7 7 7 6 6 6 6 7 7 8 8 6 5 5
9 8 8 9 8 8 7 7 6 8 8 8 9 7 7 9 13 13 12 7 7 8 8 8 8 8 8 8 9 6 7 6 6 5 5 6 6 7 7 8 7 4 4
10 10 9 8 7 8 8 8 9 8 9 8 8 9 9 10 8 7 7 7 7 8 8 9 9 9 9 8 8 8 6 7 6 6 6 6 6 7 7 7 6 5 5
9 9 7 8 8 8 8 8 9 8 8 9 9 9 8 9 9 8 8 7 7 8 9 9 9 9 9 8 8 7 8 6 6 6 5 5 6 6 7 6 6 5 5
9 9 8 8 8 8 8 7 8 9 9 10 10 10 10 8 8 9 9 8 8 9 8 9 9 8 8 9 8 8 8 6 8 6 6 6 6 6 5 5 5 4 4
9 10 9 8 8 9 9 8 8 8 9 9 10 10 10 9 9 9 9 9 8 8 9 9 9 9 8 8 8 8 8 9 6 7 5 5 4 4 5 5 5 5 4
7 8 8 8 7 8 8 9 9 9 10 10 10 10 10 10 10 11 10 9 9 10 9 10 10 12 10 9 8 8 8 9 6 9 9 6 4 6 5 6 5 6 5
7 7 7 7 7 8 9 9 9 10 10 10 10 10 10 10 10 11 10 10 10 10 11 11 10 12 12 12 12 12 10 8 10 7 8 7 7 8 5 5 6 5 6
8 8 8 7 7 8 9 9 10 10 11 11 10 10 10 10 10 11 11 11 11 12 13 10 12 16 15 12 12 11 10 9 9 7 7 6 6 7 5 7 5 3 4
Wind_Direction
153 149 149 152 153 151 154 151 145 142 147 145 138 138 144 132 121 125 118 126 113 88 356 345 341 338 333 319 319 304 297 284 282 291 308 311 316 319 333 341 339 334 318
157 158 157 152 156 147 145 154 155 137 151 151 150 143 132 133 134 141 142 140 174 272 333 322 329 334 327 320 317 311 304 298 293 297 309 308 314 317 324 335 338 333 321
163 160 161 164 154 148 148 155 149 164 152 158 151 141 136 134 125 125 182 185 254 280 300 301 317 320 317 324 321 317 315 310 300 296 302 311 315 327 323 341 342 350 321
167 168 168 159 157 158 146 152 157 158 150 153 148 126 122 115 96 11 299 307 298 301 304 307 316 315 312 327 322 319 319 310 301 291 302 317 320 347 329 338 336 351 346
173 175 168 157 141 141 129 144 146 140 145 142 133 118 148 183 220 250 233 270 295 297 291 285 283 312 322 343 333 335 324 315 307 306 297 304 329 5 339 332 331 334 43
180 180 160 139 142 139 136 146 139 133 133 131 123 166 240 284 65 198 294 297 289 276 278 276 266 256 283 318 339 339 339 339 320 324 321 336 338 26 338 334 337 345 337
181 168 154 146 139 129 127 131 120 113 115 113 96 321 323 315 327 243 280 281 288 285 281 279 269 270 267 306 311 300 284 302 44 309 350 336 325 7 332 324 336 324 318
121 110 109 102 108 107 95 86 68 58 51 40 43 322 289 281 277 275 283 271 278 284 278 271 272 279 277 280 296 307 306 295 281 297 306 305 313 322 315 308 307 299 287
91 91 94 100 102 96 88 101 108 99 87 218 238 266 273 294 298 287 275 273 280 281 283 271 288 291 295 243 290 305 302 301 240 198 229 241 237 250 255 294 286 294 291
91 90 86 82 84 89 112 105 121 106 170 256 266 251 263 290 292 285 291 291 279 291 288 277 245 266 259 248 279 287 288 296 305 307 308 294 287 296 259 264 275 271 279
79 81 78 77 81 94 85 94 71 63 308 284 281 282 282 279 292 291 290 299 294 297 287 288 284 239 252 232 234 273 289 311 296 289 291 292 297 292 280 267 263 265 266
77 73 69 73 71 56 75 71 76 40 303 301 286 286 283 277 237 302 328 311 316 293 292 292 290 340 273 263 264 277 265 271 281 288 285 287 312 303 288 281 276 269 264
69 63 63 67 62 67 26 43 50 65 0 298 316 308 300 318 321 322 350 356 326 318 307 320 313 302 284 276 263 259 262 265 272 277 280 283 286 284 291 274 257 252 257
60 54 60 44 65 47 43 10 344 11 350 341 312 314 314 307 315 350 320 301 289 299 304 302 301 293 278 273 279 267 257 259 264 270 273 278 284 281 279 277 269 269 269
66 64 46 31 55 61 55 0 343 4 347 308 311 309 303 308 325 326 309 310 314 313 312 299 297 298 297 282 270 266 269 261 255 258 266 271 271 277 275 267 274 265 267
42 49 15 26 31 20 354 343 181 237 280 290 295 307 306 306 315 309 303 305 311 308 297 296 293 294 287 274 277 278 263 264 263 264 264 267 267 266 273 267 267 273 268
43 30 25 22 15 0 351 345 345 349 317 294 293 301 299 299 303 303 304 311 307 307 291 289 287 278 279 285 277 277 274 271 275 263 259 259 261 261 257 255 264 269 276
31 38 14 18 9 354 353 349 349 340 328 333 336 314 310 302 303 310 309 316 312 291 276 277 271 273 277 282 290 274 282 280 272 263 254 253 253 253 263 253 254 260 283
27 17 8 12 14 348 342 337 342 335 338 337 331 328 329 315 304 296 298 289 293 298 286 284 278 276 278 279 286 271 274 276 261 262 251 248 253 251 249 251 258 273 289
19 32 5 2 353 354 350 342 342 344 334 328 324 326 326 324 320 318 309 307 294 283 283 283 284 285 281 276 282 278 276 262 276 247 248 248 254 259 253 258 249 256 265
9 9 4 355 353 353 345 344 337 334 331 321 316 324 304 310 314 314 314 298 292 287 284 285 282 280 278 279 275 274 293 276 261 269 245 258 252 240 245 249 256 250 260
360 360 0 353 344 346 339 325 339 332 326 321 317 317 314 314 315 308 301 296 291 287 285 283 282 278 277 275 274 281 270 270 277 246 257 248 244 244 239 260 248 242 251
355 353 349 339 338 335 337 336 327 325 322 323 322 319 320 317 311 305 302 298 293 289 287 283 282 280 275 273 266 261 263 264 275 286 255 268 229 246 239 233 245 246 240
342 338 337 337 341 329 333 329 328 324 322 325 325 320 315 313 311 307 304 298 296 294 294 290 285 282 281 272 268 262 260 266 247 270 255 239 260 227 255 243 235 232 246
348 343 338 337 336 335 331 333 331 330 329 328 326 321 316 312 310 307 305 302 302 301 298 295 290 287 283 277 270 267 260 235 259 271 290 253 238 243 249 280 248 223 239
355 351 347 343 340 339 336 334 334 332 332 328 325 321 317 314 310 311 309 307 307 305 301 294 292 290 288 281 272 270 255 227 232 223 257 247 233 246 222 256 265 232 233